Batman, Turkey

6:53 PM +03 on April 19, 2018 (GMT +0300)
Batman Air Base

Weather History for LTCJ - July, 2013

Change the Weather History Date:

Saturday, July 27, 2013

  Actual Average (LTCC) Record (LTCC)
Temperature  
Mean Temperature 82 °F -  
Max Temperature 100 °F 101 °F 109 °F (2011)
Min Temperature 64 °F 72 °F 64 °F (1997)
Cooling Degree Days 17    
Growing Degree Days 32 (Base 50)    
Moisture  
Dew Point 41 °F    
Average Humidity 25    
Maximum Humidity 49    
Minimum Humidity 11    
Precipitation  
Precipitation 0.00 in - - ()
Sea Level Pressure  
Sea Level Pressure 29.45 in    
Wind  
Wind Speed 4 mph ()    
Max Wind Speed 12 mph    
Max Gust Speed -    
Averages and records for this station are not official NWS values.
T = Trace of Precipitation, MM = Missing Value Source: Averaged Metar Reports

Daily Weather History Graph

Daily Weather History Graph

Search for Another Location

Airport or City:

Astronomy

Jul. 27, 2013 Rise Set
Actual Time 5:14 AM EEST 7:29 PM EEST
Civil Twilight 4:44 AM EEST 7:58 PM EEST
Nautical Twilight 4:08 AM EEST 8:34 PM EEST
Astronomical Twilight 3:28 AM EEST 9:14 PM EEST
Moon 10:11 PM EEST (7/27) 10:25 AM EEST (7/27)
Length of Visible Light 15h 13m
Length of Day
14h 14m
Waning Gibbous, 74% of the Moon is Illuminated
Jul 27
Waning Gibbous
Jul 29
Last Quarter
Aug 7
New
Aug 14
First Quarter
Aug 21
Full

Hourly Weather History & Observations

Time (EEST) Temp. Dew Point Humidity Pressure Visibility Wind Dir Wind Speed Gust Speed Precip Events Conditions
12:20 AM 73.4 °F 44.6 °F 36% 29.47 in - Variable 1.2 mph - N/A   Clear
12:50 AM 75.2 °F 41.0 °F 29% 29.47 in - Variable 2.3 mph - N/A   Clear
1:20 AM 71.6 °F 46.4 °F 41% 29.47 in - Calm Calm - N/A   Clear
2:20 AM 71.6 °F 39.2 °F 31% 29.44 in - Variable 1.2 mph - N/A   Clear
2:50 AM 69.8 °F 41.0 °F 35% 29.47 in - Calm Calm - N/A   Clear
3:20 AM 69.8 °F 44.6 °F 40% 29.47 in - SSW 4.6 mph - N/A   Clear
3:50 AM 69.8 °F 39.2 °F 33% 29.47 in - South 4.6 mph - N/A   Clear
4:20 AM 68.0 °F 41.0 °F 37% 29.47 in - Variable 2.3 mph - N/A   Clear
4:50 AM 68.0 °F 44.6 °F 43% 29.47 in - Calm Calm - N/A   Clear
5:20 AM 64.4 °F 44.6 °F 49% 29.47 in - SSW 3.5 mph - N/A   Clear
5:50 AM 66.2 °F 46.4 °F 49% 29.47 in - Calm Calm - N/A   Clear
6:20 AM 69.8 °F 44.6 °F 40% 29.47 in - Calm Calm - N/A   Clear
6:50 AM 71.6 °F 44.6 °F 38% 29.47 in - Variable 1.2 mph - N/A   Clear
7:20 AM 73.4 °F 42.8 °F 33% 29.47 in - SW 4.6 mph - N/A   Clear
7:50 AM 77.0 °F 42.8 °F 29% 29.47 in - SW 5.8 mph - N/A   Clear
8:20 AM 78.8 °F 39.2 °F 24% 29.47 in - WSW 5.8 mph - N/A   Clear
8:50 AM 80.6 °F 42.8 °F 26% 29.47 in - WSW 6.9 mph - N/A   Clear
9:20 AM 82.4 °F 39.2 °F 21% 29.47 in - WSW 8.1 mph - N/A   Clear
9:50 AM 86.0 °F 42.8 °F 22% 29.47 in - WSW 8.1 mph - N/A   Clear
10:20 AM 87.8 °F 44.6 °F 22% 29.47 in - SSW 8.1 mph - N/A   Clear
10:50 AM 89.6 °F 44.6 °F 21% 29.44 in - SSW 6.9 mph - N/A   Clear
11:20 AM 93.2 °F 44.6 °F 19% 29.44 in - SSW 5.8 mph - N/A   Clear
11:50 AM 95.0 °F 46.4 °F 19% 29.44 in - SSW 9.2 mph - N/A   Clear
12:20 PM 95.0 °F 44.6 °F 18% 29.44 in - SSW 8.1 mph - N/A   Clear
12:50 PM 96.8 °F 41.0 °F 15% 29.44 in - WSW 10.4 mph - N/A   Clear
1:20 PM 98.6 °F 39.2 °F 13% 29.42 in - WSW 11.5 mph - N/A   Clear
1:50 PM 98.6 °F 39.2 °F 13% 29.42 in - West 10.4 mph - N/A   Clear
2:20 PM 98.6 °F 41.0 °F 14% 29.42 in - West 11.5 mph - N/A   Clear
2:50 PM 100.4 °F 39.2 °F 12% 29.42 in - WSW 11.5 mph - N/A   Clear
3:20 PM 100.4 °F 39.2 °F 12% 29.42 in - West 9.2 mph - N/A   Clear
3:50 PM 100.4 °F 37.4 °F 11% 29.42 in - WSW 9.2 mph - N/A   Clear
4:20 PM 100.4 °F 37.4 °F 11% 29.42 in - WSW 8.1 mph - N/A   Clear
4:50 PM 100.4 °F 37.4 °F 11% 29.42 in - WSW 6.9 mph - N/A   Clear
5:20 PM 100.4 °F 37.4 °F 11% 29.42 in - WSW 10.4 mph - N/A   Clear
5:50 PM 98.6 °F 35.6 °F 11% 29.42 in - WSW 11.5 mph - N/A   Clear
6:20 PM 96.8 °F 41.0 °F 15% 29.42 in - SW 10.4 mph - N/A   Clear
6:50 PM 91.4 °F 41.0 °F 17% 29.42 in - SSW 9.2 mph - N/A   Clear
7:20 PM 86.0 °F 39.2 °F 19% 29.42 in - SSW 8.1 mph - N/A   Clear
7:50 PM 82.4 °F 37.4 °F 20% 29.44 in - South 6.9 mph - N/A   Clear
8:20 PM 84.2 °F 33.8 °F 16% 29.44 in - South 5.8 mph - N/A   Clear
8:50 PM 82.4 °F 39.2 °F 21% 29.47 in - West 3.5 mph - N/A   Clear
9:20 PM 80.6 °F 35.6 °F 20% 29.47 in - NW 1.2 mph - N/A   Clear
9:50 PM 82.4 °F 30.2 °F 15% 29.47 in - Calm Calm - N/A   Clear
10:20 PM 77.0 °F 37.4 °F 24% 29.47 in - Variable 2.3 mph - N/A   Clear
10:50 PM 77.0 °F 35.6 °F 22% 29.47 in - Calm Calm - N/A   Clear
11:20 PM 71.6 °F 44.6 °F 38% 29.47 in - North 6.9 mph - N/A   Clear
11:50 PM 69.8 °F 46.4 °F 43% 29.47 in - North 5.8 mph - N/A   Clear